Other Public Products
Issued by NWS Grand Forks, ND

Home | Current Version | Previous Version | Text Only | Print | Product List | Glossary Off
Versions: 1 2 3 4 5 6 7 8 9 10 11 12 13 14 15 16 17 18 19 20 21 22 23 24 25 26 27 28 29 30 31 32 33 34 35 36 37 38 39 40 41 42 43 44 45 46 47 48 49 50

253
FPUS83 KFGF 250431
OPUFGF
PRAIRIE TO PINES WEATHER ROUNDUP
NATIONAL WEATHER SERVICE EASTERN NORTH DAKOTA/GRAND FORKS ND
1100 PM CDT WED AUG 24 2016

 **SATELLITE DATA USED TO AUGMENT SKY COVER AT AUTOMATED STATIONS**
 *****  WEATHER ACROSS EASTERN NORTH DAKOTA  *****

CITY           SKY/WX    TMP DP  RH WIND       PRES   REMARKS
GRAND FORKS    PTCLDY    60  52  74 SW8       29.90F
GRAND FORKS AF CLEAR     58  53  83 SW7       29.91F
GRAND CITY NWS   N/A     59 N/A N/A W3          N/A
BUXTON           N/A     61  57  88 SW7         N/A
DEVILS LAKE    CLEAR     60  53  77 W16       29.93S
FARGO          CLEAR     62  51  67 W9        29.96S
WAHPETON ARPT  CLEAR     55  50  82 W3        29.99S
$$

 *****  WEATHER ACROSS CENTRAL AND WESTERN NORTH DAKOTA  *****

CITY           SKY/WX    TMP DP  RH WIND       PRES   REMARKS
JAMESTOWN      CLEAR     60  50  69 W14       30.00R
BISMARCK       CLEAR     59  48  67 W15       30.08R
MINOT          CLOUDY    57  51  80 W23       30.02R
MINOT AFB      CLOUDY    55  52  88 W16G25    30.00S
GARRISON         N/A     56  51  84 W14G24    30.06R
WILLISTON      CLOUDY    56  47  71 NW12      30.15R
DICKINSON      MOCLDY    53  46  77 W14       30.14S
HETTINGER      PTCLDY    56  43  61 W16       30.19R
$$

 *****  OTHER OBSERVATIONS NORTHEAST NORTH DAKOTA  *****

CITY           SKY/WX    TMP DP  RH WIND       PRES   REMARKS
WALHALLA       FAIR      63  57  82 W9G16     29.86S
LANGDON        CLOUDY    57  55  94 W12       29.89S
CAVALIER       FAIR      61  54  77 W6        29.87R
GRAFTON        FAIR      61  54  77 SW9       29.89F
CANDO          FAIR      55  55 100 W13       29.94F
FORT TOTTEN    NOT AVBL
ROLLA          CLOUDY    55  55 100 W8        29.93S
RUGBY          NOT AVBL
 ***** THE ABOVE OBSERVATIONS ARE NON NWS ARE NOT QUALITY
        CONTROLLED AND MAY MIS-REPORT RAIN FOR SNOW...
$$

 *****  OTHER OBSERVATIONS SOUTHEAST NORTH DAKOTA *****

CITY           SKY/WX    TMP DP  RH WIND       PRES   REMARKS
COOPERSTOWN    NOT AVBL
VALLEY CITY    FAIR      59  55  88 W12       30.01S
OAKES            N/A    N/A N/A N/A MISG        N/A
GWINNER        FAIR      57  54  88 W8        30.01S
SHEYENNE NWR     N/A     56  51  83 W3        29.95S
BUFFALO          N/A     59  51  75 W9          N/A
WYNDMERE         N/A     55  54  94 SW3         N/A
 ***** THE ABOVE OBSERVATIONS ARE NON NWS ARE NOT QUALITY
       CONTROLLED AND MAY MIS-REPORT RAIN FOR SNOW...
$$

  *****  WEATHER ACROSS NORTHERN MINNESOTA  *****

CITY           SKY/WX    TMP DP  RH WIND       PRES   REMARKS
FLAG ISLAND    PTCLDY    64  54  68 SW5       29.83F HAZE
WARROAD        CLEAR     57  54  88 SW5       29.87F
ROSEAU         CLEAR     61  54  77 SW7       29.86F
HALLOCK        MOCLDY    63  54  72 SW9       29.86S
THF RVR FALLS  CLEAR     59  51  75 SW10      29.91F
HALSTAD          N/A     60  52  74 W9          N/A
FOSSTON        CLEAR     54  50  87 SW7       29.94F
BAUDETTE       CLEAR     57  52  83 SW5       29.87F
WASKISH        CLEAR     66  57  72 W12       29.90S
CROOKSTON      CLEAR     61  52  72 W12       29.91F
$$
  *****  WEATHER ACROSS CENTRAL AND WEST MINNESOTA  *****

CITY           SKY/WX    TMP DP  RH WIND       PRES   REMARKS
BEMIDJI        CLEAR     59  53  80 SW6       29.93S
PARK RAPIDS    CLEAR     57  52  83 SW6       29.96F
WADENA         CLEAR     55  52  88 W5        29.97S
DETROIT LAKES  CLEAR     63  52  67 W6        29.98S
MOORHEAD       CLEAR     59  52  77 W5        29.97S
FERGUS FALLS   CLEAR     61  54  77 W3        30.00S
ELBOW LAKE     FAIR      58  55  88 SW5       30.00S
MORRIS MN      CLEAR     61  55  82 CALM      30.00R
STAPLES        CLEAR     57  54  88 W5        29.98R
WHEATON        CLEAR     63  57  82 W3        30.01S
$$
  *****  WEATHER ELSEWHERE ACROSS MINNESOTA  *****

CITY           SKY/WX    TMP DP  RH WIND       PRES   REMARKS
DULUTH         CLOUDY    65  55  70 W9        29.94R
INTRNTL FALLS  CLEAR     55  51  86 CALM      29.89S
ELY            CLOUDY    61  54  77 W5        29.91F
CLOQUET        CLOUDY    63  54  72 SW6       29.95S
BRAINERD       PTCLDY    58  55  90 CALM      29.96F
HIBBING        CLOUDY    56  52  86 W3        29.93F
ALEXANDRIA     CLEAR     63  56  78 W3        30.01R
SAINT CLOUD    CLOUDY    61  59  93 S3        29.99R
MINNEAPOLIS    CLOUDY    69  59  70 W6        29.99S
$$

  *****  WEATHER ACROSS SOUTH DAKOTA  *****

CITY           SKY/WX    TMP DP  RH WIND       PRES   REMARKS
SIOUX FALLS    CLOUDY    65  58  78 SW3       30.08S
BROOKINGS      CLOUDY    62  56  80 SW6       30.07
WATERTOWN      CLEAR     59  55  87 S6        30.04R
HURON          CLEAR     63  54  72 SW8       30.06R
SISSETON         N/A     58  54  86 CALM      30.00R
ABERDEEN       CLEAR     62  50  64 NW7       30.04R
MITCHELL       CLEAR     65  54  67 SW7       30.08R
PIERRE         PTCLDY    62  49  62 NW6       30.08S
MOBRIDGE       CLEAR     65  45  48 NW14      30.09R
RAPID CITY     CLOUDY    62  44  51 N12       30.22R
$$

  *****  SOME WEATHER IN NEARBY STATES *****

CITY           SKY/WX    TMP DP  RH WIND       PRES   REMARKS
GLASGOW MT     CLOUDY    53  45  74 W7        30.25R
GREAT FALLS MT CLOUDY    54  40  59 E5        30.34S
CHEYENNE WY    CLOUDY    55  47  74 S6        30.29R
SCOTTSBLUFF NE CLOUDY    59  48  67 NE13      30.22S
OMAHA NE       CLOUDY    66  61  84 N6        30.05F
DES MOINES IA  CLOUDY    74  68  81 CALM      29.99F
DAVENPORT IA   LGT RAIN  71  70  96 SE5       29.97F
CHICAGO IL     MOCLDY    77  71  82 SW6       29.97R
EAU CLAIRE WI  CLOUDY    66  58  75 CALM      29.96S
LA CROSSE WI   CLOUDY    72  32  23 NW8       29.98R
$$

  *****  SOME NATIONAL WEATHER *****

CITY           SKY/WX    TMP DP  RH WIND       PRES   REMARKS
LA GUARDIA NY  PTCLDY    77  62  59 SW12      30.17S
RALEIGH NC     PTCLDY    72  64  76 S3        30.22S
ATLANTA GA     PTCLDY    76  72  87 E7        30.21F
NEW ORLEANS LA CLOUDY    84  76  76 SE3       30.09F HX  93
OKLAHOMA CITY  PTCLDY    81  69  67 S15       30.03S
ALBUQUERQUE NM PTCLDY    69  50  50 N6        30.21R
SALT LAKE CITY PTCLDY    72  23  16 SE3       30.09R
LOS ANGELES CA CLEAR     65  58  78 W6        29.95R
BOISE ID       CLEAR     71  32  23 CALM      30.06R
SEATTLE WA     PTCLDY    78  51  38 NE12      30.15R
$$

*** WEATHER ACROSS MANITOBA...SASKATCHEWAN AND ONTARIO ***
                ***ONTARIO***

CITY           SKY/WX    TMP DP  RH WIND       PRES   REMARKS
GERALDTON      CLOUDY    64  64 100 W3        29.78R
THUNDER BAY    MOCLDY    63  61  94 W5        29.81R
SIOUX LOOKOUT  PTCLDY    64  55  72 W6        29.80S
TORONTO        MOCLDY    75  64  69 SE7       29.95F
BIG TROUT LK   MOCLDY    46  45  93 E2        29.91S
PICKLE LAKE    NOT AVBL
DRYDEN         MOCLDY    64  54  68 SW12      29.83S
KENORA         MOCLDY    64  52  63 W8        29.84F
$$
                *** MANITOBA***

CITY           SKY/WX    TMP DP  RH WIND       PRES   REMARKS
BRANDON        CLOUDY    57  54  88 NW13      29.90R
DAUPHIN        LGT RAIN  57  55  94 N14       29.96S
ISLAND LAKE    CLOUDY    59  52  77 NE7       29.94
PILOT MOUND      N/A     57  54  88 W7          N/A
THE PAS        PTCLDY    50  46  87 CALM      30.01S
THOMPSON       PTCLDY    46  39  76 CALM      29.96F
WINNIPEG       PTCLDY    61  54  77 SW8       29.81S
LYNN LAKE      CLEAR     55  50  82 MISG      30.00S
CHURCHILL      PTCLDY    50  45  81 S7        29.90F
GILLAM         PTCLDY    54  39  58 SW2       29.92S
$$
                ***SASKATCHEWAN***

CITY           SKY/WX    TMP DP  RH WIND       PRES   REMARKS
ESTEVAN        CLOUDY    54  48  82 NW17G23   30.08R
KINDERSLEY     PTCLDY    52  46  82 W2        30.21R
LLOYDMINSTER   PTCLDY    54  46  76 SW5       30.17F
PRINCE ALBERT  PTCLDY    50  48  93 W3        30.10S
REGINA         CLOUDY    52  50  93 NW7       30.16R
YORKTON        CLOUDY    54  50  87 N7        30.08R  C1F1C2F2C3F3C4F4C5F5C6F6C7F7C8F8C9F9CaFaCbFbCcFcCdFdCe!



USA.gov is the U.S. government's official web portal to all federal, state and local government web resources and services.